History for Ft Lauderdale, FL

Tuesday, February 21, 2017 — View Current Conditions

Jump to Data:

Date:
Airport Code:
Recently Viewed Airport Codes: KFLL
Daily Summary
  Actual Average Record
Temperature
Mean Temperature 74°F 71°F  
Max Temperature 78°F 78°F 86°F (1967)
Min Temperature 70°F 65°F 39°F (1958)
Degree Days
Heating Degree Days 0 1  
Month to date heating degree days 0 21  
Since 1 July heating degree days 29 101  
Cooling Degree Days 9 7  
Month to date cooling degree days 173 138  
Year to date cooling degree days 386 308  
Growing Degree Days 23 (Base 50)    
Moisture
Dew Point 60°F    
Average Humidity 63    
Maximum Humidity 68    
Minimum Humidity 57    
Precipitation
Precipitation 0.00 in 0.09 in 0.90 in (1954)
Month to date precipitation 0.13 2.30  
Year to date precipitation 1.84 5.93  
Snow
Snow 0.00 in in in ()
Month to date snowfall 0.0  
Since 1 July snowfall 0.0  
Snow Depth 0.00 in    
Sea Level Pressure
Sea Level Pressure 30.02 in    
Wind
Wind Speed 11 mph (East)    
Max Wind Speed 20 mph    
Max Gust Speed 22 mph    
Visibility 10 miles    
Events      
T = Trace of Precipitation, MM = Missing Value Source: NWS Daily Summary

Show full METARS

(help) - Comma Delimited File

Hourly Observations

Time(EST) Temperature Dew Point Humidity Sea Level Pressure Visibility Wind Direction Wind Speed Gust Speed Precipitation Events Conditions
12:53 AM 72.0°F 59.0°F 64% 30.06 in 10.0 miles East 11.5 mph - N/A   Scattered Clouds
1:53 AM 72.0°F 57.9°F 61% 30.05 in 10.0 miles East 9.2 mph - N/A   Scattered Clouds
2:53 AM 72.0°F 57.9°F 61% 30.05 in 10.0 miles East 6.9 mph - N/A   Mostly Cloudy
3:53 AM 71.1°F 57.0°F 61% 30.04 in 10.0 miles East 5.8 mph - N/A   Mostly Cloudy
4:53 AM 71.1°F 57.9°F 63% 30.06 in 10.0 miles East 9.2 mph - N/A   Mostly Cloudy
5:53 AM 72.0°F 59.0°F 64% 30.06 in 10.0 miles East 8.1 mph - N/A   Mostly Cloudy
6:53 AM 71.1°F 57.0°F 61% 30.08 in 10.0 miles ENE 4.6 mph - N/A   Mostly Cloudy
7:53 AM 73.0°F 59.0°F 61% 30.09 in 10.0 miles ENE 6.9 mph - N/A   Overcast
8:53 AM 73.9°F 57.0°F 55% 30.10 in 10.0 miles East 10.4 mph - N/A   Overcast
9:53 AM 73.9°F 59.0°F 59% 30.09 in 10.0 miles East 10.4 mph - N/A   Overcast
10:53 AM 75.9°F 59.0°F 56% 30.09 in 10.0 miles East 12.7 mph - N/A   Overcast
11:53 AM 75.9°F 60.1°F 58% 30.09 in 10.0 miles East 10.4 mph - N/A   Overcast
12:53 PM 75.9°F 61.0°F 60% 30.06 in 10.0 miles East 15.0 mph - N/A   Overcast
1:53 PM 75.9°F 61.0°F 60% 30.02 in 10.0 miles East 12.7 mph - N/A   Overcast
2:53 PM 75.9°F 61.0°F 60% 30.01 in 10.0 miles ESE 12.7 mph - N/A   Overcast
3:53 PM 75.9°F 61.0°F 60% 29.99 in 10.0 miles SE 11.5 mph - N/A   Overcast
4:53 PM 75.0°F 60.1°F 60% 29.97 in 10.0 miles ESE 13.8 mph - N/A   Overcast
5:53 PM 73.9°F 59.0°F 59% 29.98 in 10.0 miles ESE 10.4 mph - N/A   Overcast
6:53 PM 73.9°F 60.1°F 62% 29.97 in 10.0 miles ESE 11.5 mph - N/A   Overcast
7:53 PM 73.9°F 61.0°F 64% 29.97 in 10.0 miles ESE 15.0 mph - N/A   Mostly Cloudy
8:53 PM 73.9°F 62.1°F 66% 29.95 in 10.0 miles ESE 15.0 mph - N/A   Mostly Cloudy
9:53 PM 73.9°F 63.0°F 68% 29.95 in 10.0 miles ESE 12.7 mph - N/A   Mostly Cloudy
10:53 PM 73.9°F 63.0°F 68% 29.92 in 10.0 miles ESE 15.0 mph - N/A   Overcast
11:53 PM 73.9°F 64.0°F 71% 29.91 in 10.0 miles SE 15.0 mph - N/A   Mostly Cloudy